Simultaneous Nadir Overpasses (SNOs) Predictions

Prediction of SNOs between GOES-16 and METOP-A Satellite Orbit:

Table of predicted SNOs for the next 14.0 days since TLE Epoch: 6/26/2021
Index Date Time (GOES-16) GOES-16 Lat,Lon METOP-A Lat,Lon Distance(km) Time Diff (sec)
1 06/27/2021 13:25:48 -0.07, -75.16 0.87, -79.45 487.47 80
2 06/28/2021 13:02:29 -0.08, -75.17 -0.26, -74.47 79.56 80
3 06/30/2021 01:24:08 0.07, -75.14 -0.80, -79.10 451.72 80
4 07/01/2021 01:00:49 0.08, -75.14 0.33, -74.13 115.89 80
5 07/02/2021 13:22:20 -0.07, -75.19 0.69, -78.73 402.84 80
6 07/03/2021 12:58:59 -0.08, -75.20 -0.38, -73.75 165.19 80
7 07/05/2021 01:20:40 0.07, -75.19 -0.61, -78.39 364.69 80
8 07/06/2021 00:57:19 0.08, -75.20 0.46, -73.41 203.48 80
9 07/07/2021 13:18:51 -0.08, -75.25 0.50, -78.02 314.56 80
10 07/08/2021 12:55:31 -0.09, -75.27 -0.57, -73.04 253.78 80
